TimeAKST,TemperatureF,Dew PointF,Humidity,Sea Level PressureIn,VisibilityMPH,Wind Direction,Wind SpeedMPH,Gust SpeedMPH,PrecipitationIn,Events,Conditions,WindDirDegrees,DateUTC
12:44 AM,33.8,32.0,93,30.06,4.0,Calm,Calm,-,0.02,Snow,Light Snow,0,2012-11-09 09:44:00
12:53 AM,33.1,32.0,96,30.06,6.0,Calm,Calm,-,0.02,Snow,Light Snow,0,2012-11-09 09:53:00
1:53 AM,33.1,32.0,96,30.03,10.0,Calm,Calm,-,0.02,Rain,Light Rain,0,2012-11-09 10:53:00
3:53 AM,33.1,32.0,96,29.98,10.0,Calm,Calm,-,0.00,Rain,Light Rain,0,2012-11-09 12:53:00
4:53 AM,33.1,32.0,96,29.94,10.0,Calm,Calm,-,0.00,,Overcast,0,2012-11-09 13:53:00
5:53 AM,33.1,32.0,96,29.91,10.0,Calm,Calm,-,0.00,,Overcast,0,2012-11-09 14:53:00
6:53 AM,34.0,33.1,96,29.88,10.0,Calm,Calm,-,N/A,,Overcast,0,2012-11-09 15:53:00
7:53 AM,39.9,36.0,86,29.87,10.0,SSE,4.6,-,0.00,,Overcast,150,2012-11-09 16:53:00
8:53 AM,36.0,35.1,97,29.86,10.0,Calm,Calm,-,0.00,,Overcast,0,2012-11-09 17:53:00
9:53 AM,36.0,35.1,97,29.84,10.0,Calm,Calm,-,0.00,,Overcast,0,2012-11-09 18:53:00
10:53 AM,36.0,35.1,97,29.83,10.0,North,3.5,-,N/A,,Overcast,360,2012-11-09 19:53:00
11:53 AM,37.9,35.1,89,29.83,10.0,Variable,3.5,-,N/A,,Overcast,0,2012-11-09 20:53:00
12:53 PM,37.0,35.1,93,29.81,10.0,Calm,Calm,-,0.00,Rain,Light Rain,0,2012-11-09 21:53:00
1:53 PM,37.0,35.1,93,29.78,10.0,Calm,Calm,-,0.01,,Overcast,0,2012-11-09 22:53:00
2:53 PM,37.0,35.1,93,29.75,8.0,Calm,Calm,-,N/A,,Overcast,0,2012-11-09 23:53:00
3:53 PM,37.0,35.1,93,29.73,10.0,Calm,Calm,-,0.00,Rain,Light Rain,0,2012-11-10 00:53:00
4:53 PM,36.0,35.1,97,29.72,10.0,Calm,Calm,-,0.00,,Overcast,0,2012-11-10 01:53:00
5:53 PM,35.1,34.0,96,29.70,10.0,Calm,Calm,-,N/A,,Overcast,0,2012-11-10 02:53:00
6:53 PM,35.1,34.0,96,29.69,9.0,Calm,Calm,-,N/A,,Overcast,0,2012-11-10 03:53:00
7:53 PM,35.1,33.1,92,29.68,10.0,Calm,Calm,-,N/A,,Overcast,0,2012-11-10 04:53:00
8:53 PM,35.1,33.1,92,29.66,10.0,Calm,Calm,-,0.00,,Overcast,0,2012-11-10 05:53:00
9:30 PM,35.6,33.8,93,29.65,10.0,Calm,Calm,-,N/A,,Overcast,0,2012-11-10 06:30:00
9:53 PM,35.1,33.1,92,29.64,10.0,Calm,Calm,-,N/A,,Overcast,0,2012-11-10 06:53:00
10:53 PM,35.1,33.1,92,29.62,6.0,Calm,Calm,-,0.00,Rain,Light Rain,0,2012-11-10 07:53:00
11:53 PM,35.1,34.0,96,29.62,6.0,Calm,Calm,-,0.01,Rain,Light Rain,0,2012-11-10 08:53:00